Iron Mountain, MI

7:47 PM CST on February 23, 2017 (GMT -0600)
Ford

Weather History for KIMT - January, 2014

Change the Weather History Date:

Friday, January 24, 2014

  Actual Average Record
Temperature  
Mean Temperature 7 °F -  
Max Temperature 21 °F 27 °F 44 °F (1989)
Min Temperature -7 °F 3 °F -17 °F (1963)
Degree Days  
Heating Degree Days 58    
Moisture  
Dew Point 5 °F    
Average Humidity 75    
Maximum Humidity 86    
Minimum Humidity 62    
Precipitation  
Precipitation 0.00 in - - ()
Sea Level Pressure  
Sea Level Pressure 29.52 in    
Wind  
Wind Speed 9 mph (SW)    
Max Wind Speed 15 mph    
Max Gust Speed 23 mph    
Visibility 6 miles    
Events Snow    
Averages and records for this station are not official NWS values.
T = Trace of Precipitation, MM = Missing Value Source: NWS Daily Summary

Daily Weather History Graph

Daily Weather History Graph

Search for Another Location

Airport or City:

Trip Planner

Search our weather history database for the weather conditions in past years. The results will help you decide how hot, cold, wet, or windy it might be!

Date:

Astronomy

Jan. 24, 2014 Rise Set
Actual Time 7:22 AM CST 4:46 PM CST
Civil Twilight 6:50 AM CST 5:19 PM CST
Nautical Twilight 6:14 AM CST 5:55 PM CST
Astronomical Twilight 5:38 AM CST 6:30 PM CST
Moon 12:45 AM CST 11:08 AM CST
Length of Visible Light 10h 29m
Length of Day
9h 23m
Last Quarter, 44% of the Moon is Illuminated
Jan 24
Last Quarter
Jan 30
New
Feb 6
First Quarter
Feb 14
Full
Feb 22
Last Quarter

Hourly Weather History & Observations

Time (CST) Temp. Windchill Dew Point Humidity Pressure Visibility Wind Dir Wind Speed Gust Speed Precip Events Conditions
12:54 AM -6.0 °F -20.1 °F -15.0 °F 65% 30.18 in 10.0 mi SW 6.9 mph - N/A   Partly Cloudy
1:54 AM -7.1 °F -23.9 °F -15.0 °F 68% 30.14 in 10.0 mi South 9.2 mph - N/A   Clear
2:54 AM -5.1 °F -20.4 °F -15.0 °F 62% 30.09 in 10.0 mi SSW 8.1 mph - N/A   Mostly Cloudy
3:54 AM -2.9 °F -18.8 °F -13.0 °F 62% 30.00 in 10.0 mi South 9.2 mph 18.4 mph N/A   Overcast
4:54 AM -2.9 °F -19.8 °F -11.9 °F 65% 29.94 in 10.0 mi South 10.4 mph - N/A   Overcast
5:54 AM -2.0 °F -19.6 °F -11.9 °F 63% 29.86 in 10.0 mi South 11.5 mph - N/A   Overcast
6:54 AM -0.9 °F -16.4 °F -9.9 °F 66% 29.81 in 8.0 mi SSE 9.2 mph - N/A   Overcast
7:54 AM -0.0 °F -17.1 °F -7.1 °F 72% 29.76 in 1.5 mi South 11.5 mph - 0.00 in Snow Light Snow
8:04 AM -0.4 °F -15.7 °F -5.8 °F 78% 29.65 in 3.0 mi South 9.2 mph - 0.00 in Snow Light Snow
8:54 AM 1.0 °F -12.9 °F -7.1 °F 69% 29.72 in 10.0 mi South 8.1 mph - 0.00 in   Overcast
9:09 AM 1.4 °F -12.5 °F -7.6 °F 66% 29.61 in 10.0 mi South 8.1 mph - N/A   Overcast
9:54 AM 3.0 °F -9.3 °F -5.1 °F 69% 29.68 in 10.0 mi SSE 6.9 mph - N/A   Overcast
10:54 AM 10.0 °F -3.7 °F 1.9 °F 70% 29.63 in 10.0 mi SW 10.4 mph - 0.00 in   Overcast
11:54 AM 12.9 °F 0.7 °F 5.0 °F 71% 29.58 in 7.0 mi WSW 9.2 mph 17.3 mph 0.00 in   Overcast
12:54 PM 15.1 °F 0.5 °F 7.0 °F 70% 29.53 in 10.0 mi WSW 13.8 mph - N/A   Overcast
1:54 PM 15.1 °F 2.5 °F 9.0 °F 77% 29.49 in 5.0 mi WSW 10.4 mph - 0.00 in Snow Light Snow
2:54 PM 16.0 °F 4.4 °F 10.0 °F 77% 29.46 in 7.0 mi SW 9.2 mph - 0.00 in   Overcast
3:06 PM 15.8 °F 5.1 °F 10.4 °F 79% 29.37 in 1.8 mi SW 8.1 mph - 0.00 in Snow Light Snow
3:45 PM 15.8 °F 5.1 °F 10.4 °F 79% 29.34 in 2.0 mi SW 8.1 mph - 0.00 in Snow Light Snow
3:54 PM 17.1 °F 5.8 °F 10.9 °F 77% 29.42 in 3.0 mi SW 9.2 mph - 0.00 in Snow Light Snow
4:44 PM 17.6 °F 9.3 °F 10.4 °F 73% 29.34 in 1.8 mi WSW 5.8 mph - 0.00 in Snow Light Snow
4:54 PM 17.1 °F 8.7 °F 12.0 °F 81% 29.42 in 1.5 mi WSW 5.8 mph - 0.00 in Snow Light Snow
5:19 PM 17.6 °F 8.2 °F 12.2 °F 79% 29.32 in 2.5 mi WSW 6.9 mph - 0.00 in Snow Light Snow
5:23 PM 17.6 °F 9.3 °F 12.2 °F 79% 29.32 in 3.0 mi WSW 5.8 mph - 0.00 in Snow Light Snow
5:54 PM 18.0 °F 8.7 °F 12.9 °F 81% 29.39 in 3.0 mi WSW 6.9 mph - 0.00 in Snow Light Snow
6:54 PM 19.0 °F 10.0 °F 12.9 °F 77% 29.36 in 4.0 mi WSW 6.9 mph - 0.00 in Snow Light Snow
7:05 PM 19.4 °F 10.4 °F 14.0 °F 80% 29.28 in 1.8 mi SW 6.9 mph - 0.00 in Snow Light Snow
7:14 PM 19.4 °F 9.5 °F 14.0 °F 80% 29.28 in 3.0 mi WSW 8.1 mph - 0.00 in Snow Light Snow
7:54 PM 19.0 °F 9.0 °F 14.0 °F 81% 29.33 in 4.0 mi WSW 8.1 mph - 0.00 in Snow Light Snow
8:54 PM 19.9 °F 11.1 °F 15.1 °F 81% 29.30 in 6.0 mi West 6.9 mph - 0.00 in Snow Light Snow
9:54 PM 21.0 °F 10.6 °F 16.0 °F 81% 29.28 in 9.0 mi West 9.2 mph - 0.00 in   Overcast
10:54 PM 21.0 °F 13.4 °F 16.0 °F 81% 29.25 in 10.0 mi West 5.8 mph - N/A   Partly Cloudy
11:12 PM 21.2 °F 10.9 °F 17.6 °F 86% 29.19 in 2.5 mi WNW 9.2 mph - 0.00 in Snow Light Snow
11:16 PM 21.2 °F 10.1 °F 17.6 °F 86% 29.19 in 0.8 mi WNW 10.4 mph - 0.00 in Snow Light Snow
11:29 PM 21.2 °F 7.8 °F 17.6 °F 86% 29.20 in 2.0 mi WNW 15.0 mph 21.9 mph 0.00 in Snow Light Snow
11:45 PM 21.2 °F 8.3 °F 17.6 °F 86% 29.20 in 3.0 mi WNW 13.8 mph - 0.00 in Snow Light Snow
11:54 PM 21.9 °F 8.7 °F 17.1 °F 82% 29.27 in 3.0 mi NW 15.0 mph 23.0 mph 0.00 in Snow Light Snow